EW5836 Weather Reports


Display with metric or nautical units.
time (UTC)temp
F
wind
direction
speed
MPH
gust
MPH
rain 1hr
in
rain 24hr
in
rain mn
in
humidity
%
barometer
mb
20260902201042 76 314 0.0 3.0 0.00 0.00 0.00 71 1019.1
20260902200542 77 314 0.0 6.0 0.00 0.00 0.00 71 1019.0
20260902200055 76 314 2.0 6.0 0.00 0.00 0.00 71 1019.0
20260902195532 76 320 2.0 5.0 0.00 0.00 0.00 72 1019.0
20260902195043 76 324 0.0 0.0 0.00 0.00 0.00 72 1019.0
20260902194547 76 324 0.0 3.0 0.00 0.00 0.00 72 1019.0
20260902194035 76 324 0.0 3.0 0.00 0.00 0.00 72 1019.0
20260902193541 76 324 0.0 3.0 0.00 0.00 0.00 71 1018.9
20260902193059 77 324 0.0 3.0 0.00 0.00 0.00 71 1018.8
20260902192534 77 324 1.0 3.0 0.00 0.00 0.00 70 1018.8
20260902192043 77 326 0.0 2.0 0.00 0.00 0.00 70 1018.7
20260902191548 77 327 0.0 1.0 0.00 0.00 0.00 70 1018.8
20260902191040 78 327 0.0 0.0 0.00 0.00 0.00 68 1018.7
20260902190543 78 327 0.0 0.0 0.00 0.00 0.00 68 1018.7
20260902190034 78 327 0.0 0.0 0.00 0.00 0.00 68 1018.7
20260902185538 79 327 0.0 0.0 0.00 0.00 0.00 67 1018.6
20260902185056 79 327 0.0 0.0 0.00 0.00 0.00 66 1018.5
20260902184532 79 328 0.0 4.0 0.00 0.00 0.00 66 1018.4
20260902184039 79 333 0.0 1.0 0.00 0.00 0.00 66 1018.4
20260902183601 80 334 0.0 1.0 0.00 0.00 0.00 65 1018.4
20260902183055 80 335 0.0 5.0 0.00 0.00 0.00 64 1018.2
20260902182533 80 320 2.0 8.0 0.00 0.00 0.00 64 1018.1
20260902182041 80 323 2.0 8.0 0.00 0.00 0.00 64 1018.1
20260902181605 80 295 2.0 8.0 0.00 0.00 0.00 65 1018.1
20260902181035 80 326 2.0 6.0 0.00 0.00 0.00 65 1018.1
20260902180538 80 318 2.0 6.0 0.00 0.00 0.00 65 1018.1
20260902180041 80 318 2.0 8.0 0.00 0.00 0.00 64 1018.2
20260902175542 81 326 4.0 8.0 0.00 0.00 0.00 64 1018.1
20260902175034 81 308 1.0 6.0 0.00 0.00 0.00 63 1018.2
20260902174535 81 320 2.0 6.0 0.00 0.00 0.00 63 1018.1
20260902174040 81 321 2.0 6.0 0.00 0.00 0.00 63 1018.1
20260902173544 80 316 1.0 4.0 0.00 0.00 0.00 63 1018.0
20260902173036 80 129 0.0 0.0 0.00 0.00 0.00 63 1018.1
20260902172540 81 131 0.0 0.0 0.00 0.00 0.00 62 1018.0
20260902172056 81 131 0.0 0.0 0.00 0.00 0.00 61 1018.1
20260902171537 82 131 0.0 0.0 0.00 0.00 0.00 61 1018.0
20260902171043 83 131 0.0 0.0 0.00 0.00 0.00 60 1018.0
20260902170607 83 131 0.0 0.0 0.00 0.00 0.00 58 1018.1
20260902170036 84 131 0.0 0.0 0.00 0.00 0.00 57 1018.0
20260902165536 84 131 0.0 0.0 0.00 0.00 0.00 56 1018.0
20260902165048 85 131 0.0 0.0 0.00 0.00 0.00 56 1017.9
20260902164553 85 131 0.0 0.0 0.00 0.00 0.00 56 1017.9
20260902164040 86 131 0.0 0.0 0.00 0.00 0.00 55 1017.9
20260902163542 86 131 0.0 0.0 0.00 0.00 0.00 52 1017.9
20260902163034 86 131 0.0 0.0 0.00 0.00 0.00 52 1018.0
20260902162539 85 131 0.0 0.0 0.00 0.00 0.00 52 1017.9
20260902162118 85 131 0.0 0.0 0.00 0.00 0.00 52 1017.9
20260902161532 85 131 0.0 0.0 0.00 0.00 0.00 53 1017.9
20260902161038 86 131 0.0 0.0 0.00 0.00 0.00 54 1017.9
20260902160542 86 131 0.0 0.0 0.00 0.00 0.00 53 1018.0
20260902160047 86 131 0.0 3.0 0.00 0.00 0.00 53 1018.0
20260902155552 86 131 0.0 5.0 0.00 0.00 0.00 53 1018.0
20260902155041 86 158 1.0 5.0 0.00 0.00 0.00 53 1018.0
20260902154601 86 142 0.0 0.0 0.00 0.00 0.00 52 1018.0
20260902154058 86 142 0.0 0.0 0.00 0.00 0.00 53 1018.1
20260902153531 86 142 0.0 0.0 0.00 0.00 0.00 53 1018.1
20260902153055 86 142 0.0 0.0 0.00 0.00 0.00 53 1018.1
20260902152533 85 142 0.0 0.0 0.00 0.00 0.00 53 1018.2
20260902152043 85 142 0.0 0.0 0.00 0.00 0.00 53 1018.3
20260902151543 85 142 0.0 8.0 0.00 0.00 0.00 54 1018.3
20260902151041 85 142 0.0 8.0 0.00 0.00 0.00 54 1018.4
20260902150545 86 147 3.0 7.0 0.00 0.00 0.00 54 1018.3
20260902150034 86 158 1.0 5.0 0.00 0.00 0.00 54 1018.5
20260902145538 87 158 0.0 3.0 0.00 0.00 0.00 53 1018.5
20260902145116 87 160 0.0 0.0 0.00 0.00 0.00 53 1018.5
20260902144550 87 162 0.0 5.0 0.00 0.00 0.00 53 1018.5
20260902144107 88 162 0.0 5.0 0.00 0.00 0.00 52 1018.6
20260902143549 88 279 0.0 0.0 0.00 0.00 0.00 51 1018.7
20260902143103 87 279 0.0 0.0 0.00 0.00 0.00 53 1018.7
20260902142601 87 280 0.0 0.0 0.00 0.00 0.00 53 1018.7
20260902142047 86 283 0.0 3.0 0.00 0.00 0.00 53 1018.7
20260902141545 86 257 0.0 3.0 0.00 0.00 0.00 55 1018.7
20260902141034 86 173 0.0 3.0 0.00 0.00 0.00 53 1018.8
20260902140537 86 174 0.0 3.0 0.00 0.00 0.00 54 1018.8
20260902140055 86 162 0.0 0.0 0.00 0.00 0.00 55 1018.8
20260902135531 85 161 0.0 0.0 0.00 0.00 0.00 58 1018.9
20260902135040 85 173 0.0 9.0 0.00 0.00 0.00 56 1018.9
20260902134543 85 178 1.0 9.0 0.00 0.00 0.00 58 1018.9
20260902134033 84 147 0.0 7.0 0.00 0.00 0.00 59 1018.9
20260902133536 84 169 2.0 9.0 0.00 0.00 0.00 59 1019.0
20260902133044 84 85 2.0 9.0 0.00 0.00 0.00 60 1019.0
20260902132607 84 129 1.0 6.0 0.00 0.00 0.00 60 1019.0
20260902132038 84 138 2.0 6.0 0.00 0.00 0.00 58 1019.1
20260902131540 85 150 0.0 0.0 0.00 0.00 0.00 58 1019.1
20260902131057 84 31 0.0 0.0 0.00 0.00 0.00 57 1019.2
20260902130532 83 32 0.0 0.0 0.00 0.00 0.00 59 1019.3
20260902130042 83 135 0.0 4.0 0.00 0.00 0.00 59 1019.4
20260902125602 84 135 2.0 9.0 0.00 0.00 0.00 57 1019.4
20260902125032 85 147 6.0 9.0 0.00 0.00 0.00 57 1019.4
20260902124550 85 112 0.0 0.0 0.00 0.00 0.00 56 1019.4
20260902124105 86 166 0.0 0.0 0.00 0.00 0.00 55 1019.5
20260902123546 86 181 0.0 0.0 0.00 0.00 0.00 56 1019.5
20260902123037 85 188 0.0 0.0 0.00 0.00 0.00 56 1019.6
20260902122539 85 163 0.0 0.0 0.00 0.00 0.00 56 1019.7
20260902122044 85 191 0.0 0.0 0.00 0.00 0.00 56 1019.7
20260902121545 85 29 0.0 0.0 0.00 0.00 0.00 54 1019.7
20260902121044 84 345 0.0 0.0 0.00 0.00 0.00 55 1019.7
20260902120549 84 158 0.0 0.0 0.00 0.00 0.00 57 1019.7
20260902120037 83 158 0.0 7.0 0.00 0.00 0.00 57 1019.7
20260902115542 83 163 0.0 8.0 0.00 0.00 0.00 58 1019.8
20260902115118 84 149 2.0 8.0 0.00 0.00 0.00 58 1019.9
20260902114532 83 162 0.0 12.0 0.00 0.00 0.00 58 1020.0
20260902114107 83 136 6.0 12.0 0.00 0.00 0.00 58 1020.0
20260902113547 84 172 0.0 0.0 0.00 0.00 0.00 58 1020.1
20260902113044 83 172 0.0 3.0 0.00 0.00 0.00 57 1020.1
20260902112546 83 156 0.0 4.0 0.00 0.00 0.00 59 1020.2
20260902112059 83 106 0.0 0.0 0.00 0.00 0.00 57 1020.2
20260902111532 82 77 0.0 0.0 0.00 0.00 0.00 58 1020.3
20260902111041 82 35 0.0 0.0 0.00 0.00 0.00 59 1020.4
20260902110542 82 89 0.0 7.0 0.00 0.00 0.00 60 1020.5
20260902110033 81 169 1.0 8.0 0.00 0.00 0.00 61 1020.5
20260902105538 82 146 0.0 9.0 0.00 0.00 0.00 61 1020.6
20260902105046 82 155 6.0 9.0 0.00 0.00 0.00 61 1020.6
20260902104550 81 165 1.0 8.0 0.00 0.00 0.00 61 1020.8
20260902104038 81 196 3.0 8.0 0.00 0.00 0.00 62 1020.8
20260902103540 81 182 2.0 5.0 0.00 0.00 0.00 63 1020.9
20260902103053 80 136 0.0 0.0 0.00 0.00 0.00 62 1021.0
20260902102536 80 136 0.0 0.0 0.00 0.00 0.00 63 1021.0
20260902102042 80 133 0.0 0.0 0.00 0.00 0.00 64 1021.1
20260902101545 80 129 0.0 0.0 0.00 0.00 0.00 63 1021.1
20260902101037 80 85 0.0 0.0 0.00 0.00 0.00 63 1021.1
20260902100541 80 162 0.0 5.0 0.00 0.00 0.00 63 1021.1
20260902100052 80 153 3.0 5.0 0.00 0.00 0.00 62 1021.1
20260902095534 80 213 0.0 0.0 0.00 0.00 0.00 61 1021.1
20260902095038 79 162 0.0 2.0 0.00 0.00 0.00 62 1021.2
20260902094536 79 162 0.0 6.0 0.00 0.00 0.00 62 1021.3
20260902094041 79 159 2.0 6.0 0.00 0.00 0.00 63 1021.3
20260902093542 78 160 0.0 0.0 0.00 0.00 0.00 62 1021.3
20260902093048 78 160 0.0 0.0 0.00 0.00 0.00 62 1021.2
20260902092549 78 160 0.0 3.0 0.00 0.00 0.00 61 1021.3
20260902092044 78 160 1.0 5.0 0.00 0.00 0.00 61 1021.3
20260902091545 77 175 0.0 0.0 0.00 0.00 0.00 64 1021.2
20260902091120 77 127 0.0 0.0 0.00 0.00 0.00 66 1021.3
20260902090533 76 127 0.0 0.0 0.00 0.00 0.00 65 1021.4
20260902090043 76 127 0.0 0.0 0.00 0.00 0.00 66 1021.4
20260902085546 76 127 0.0 0.0 0.00 0.00 0.00 65 1021.3
20260902085103 76 127 0.0 0.0 0.00 0.00 0.00 65 1021.3
20260902084605 76 127 0.0 0.0 0.00 0.00 0.00 67 1021.3
20260902084102 76 127 0.0 0.0 0.00 0.00 0.00 68 1021.3
20260902083540 76 127 0.0 0.0 0.00 0.00 0.00 68 1021.3
20260902083048 76 127 0.0 0.0 0.00 0.00 0.00 69 1021.2
20260902082550 76 127 0.0 0.0 0.00 0.00 0.00 69 1021.2
20260902082043 76 127 0.0 0.0 0.00 0.00 0.00 68 1021.0
20260902081545 75 127 0.0 0.0 0.00 0.00 0.00 67 1021.1
20260902081041 75 127 0.0 2.0 0.00 0.00 0.00 67 1021.1
20260902080542 75 131 0.0 2.0 0.00 0.00 0.00 66 1021.0
20260902080033 75 314 0.0 0.0 0.00 0.00 0.00 67 1021.0
20260902075552 74 314 0.0 0.0 0.00 0.00 0.00 67 1020.9
20260902075107 74 314 0.0 0.0 0.00 0.00 0.00 69 1020.9
20260902074608 73 314 0.0 0.0 0.00 0.00 0.00 68 1021.0
20260902074036 73 314 0.0 0.0 0.00 0.00 0.00 69 1020.8
20260902073540 74 314 0.0 0.0 0.00 0.00 0.00 68 1020.9
20260902073048 74 314 0.0 0.0 0.00 0.00 0.00 70 1020.9
20260902072551 74 314 0.0 0.0 0.00 0.00 0.00 72 1020.8
20260902072046 73 314 0.0 0.0 0.00 0.00 0.00 72 1020.8
20260902071546 73 315 0.0 0.0 0.00 0.00 0.00 72 1020.8
20260902071103 74 314 0.0 0.0 0.00 0.00 0.00 74 1020.7
20260902070543 75 314 0.0 0.0 0.00 0.00 0.00 74 1020.6
20260902065543 75 314 0.0 0.0 0.00 0.00 0.00 74 1020.6
20260902065041 75 314 0.0 0.0 0.00 0.00 0.00 75 1020.7
20260902064544 74 314 0.0 0.0 0.00 0.00 0.00 75 1020.7
20260902064037 73 314 0.0 0.0 0.00 0.00 0.00 75 1020.6
20260902063553 73 314 0.0 0.0 0.00 0.00 0.00 77 1020.6
20260902063038 72 314 0.0 0.0 0.00 0.00 0.00 78 1020.6
20260902062600 72 314 0.0 0.0 0.00 0.00 0.00 80 1020.4
20260902062047 72 314 0.0 0.0 0.00 0.00 0.00 80 1020.4
20260902061550 72 315 0.0 0.0 0.00 0.00 0.00 79 1020.5
20260902061045 72 314 0.0 0.0 0.00 0.00 0.00 79 1020.3
20260902060547 71 314 0.0 0.0 0.00 0.00 0.00 80 1020.4
20260902060056 71 314 0.0 0.0 0.00 0.00 0.00 80 1020.5
20260902055532 70 314 0.0 0.0 0.00 0.00 0.00 81 1020.4
20260902055039 70 314 0.0 0.0 0.00 0.00 0.00 82 1020.4
20260902054543 69 314 0.0 0.0 0.00 0.00 0.00 82 1020.2
20260902054032 69 314 0.0 0.0 0.00 0.00 0.00 82 1020.2
20260902053553 69 314 0.0 0.0 0.00 0.00 0.00 83 1020.1
20260902053040 68 315 0.0 0.0 0.00 0.00 0.00 83 1020.1
20260902052540 68 314 0.0 0.0 0.00 0.00 0.00 83 1020.1
20260902052046 68 314 0.0 0.0 0.00 0.00 0.00 83 1019.9
20260902051604 68 314 0.0 0.0 0.00 0.00 0.00 84 1019.9
20260902051054 68 314 0.0 0.0 0.00 0.00 0.00 83 1019.9
20260902050533 68 314 0.0 0.0 0.00 0.00 0.00 83 1019.9
20260902050045 68 314 0.0 0.0 0.00 0.00 0.00 83 1019.9
20260902045547 68 314 0.0 0.0 0.00 0.00 0.00 83 1020.0
20260902045038 68 314 0.0 0.0 0.00 0.00 0.00 83 1019.9
20260902044540 68 315 0.0 0.0 0.00 0.00 0.00 82 1020.0
20260902044040 69 314 0.0 0.0 0.00 0.00 0.00 83 1020.0
20260902043543 68 314 0.0 0.0 0.00 0.00 0.00 83 1020.0
20260902043056 68 315 0.0 0.0 0.00 0.00 0.00 83 1020.1
20260902042535 68 314 0.0 0.0 0.00 0.00 0.00 83 1019.9
20260902042051 68 314 0.0 0.0 0.00 0.00 0.00 83 1019.9
20260902041555 69 314 0.0 0.0 0.00 0.00 0.00 82 1019.9
20260902041045 69 314 0.0 0.0 0.00 0.00 0.00 82 1019.8
20260902040551 69 314 0.0 0.0 0.00 0.00 0.00 82 1019.8
20260902040038 69 314 0.0 0.0 0.00 0.00 0.00 82 1019.8
20260902035539 69 314 0.0 0.0 0.00 0.00 0.00 82 1019.8
20260902035048 69 314 0.0 0.0 0.00 0.00 0.00 81 1019.8
20260902034551 69 314 0.0 0.0 0.00 0.00 0.00 81 1019.8
20260902034038 70 314 0.0 0.0 0.00 0.00 0.00 81 1019.8
20260902033540 70 314 0.0 0.0 0.00 0.00 0.00 80 1019.9
20260902033050 70 314 0.0 0.0 0.00 0.00 0.00 80 1019.9
20260902032612 70 314 0.0 0.0 0.00 0.00 0.00 80 1019.8
20260902032104 70 315 0.0 0.0 0.00 0.00 0.00 80 1019.8
20260902031545 71 314 0.0 0.0 0.00 0.00 0.00 79 1019.8
20260902031034 71 314 0.0 0.0 0.00 0.00 0.00 79 1019.7
20260902030540 71 315 0.0 0.0 0.00 0.00 0.00 80 1019.7
20260902030055 71 314 0.0 0.0 0.00 0.00 0.00 79 1019.7
20260902025532 71 315 0.0 0.0 0.00 0.00 0.00 79 1019.7
20260902025041 71 314 0.0 0.0 0.00 0.00 0.00 79 1019.6
20260902024545 71 314 0.0 0.0 0.00 0.00 0.00 79 1019.7
20260902024055 71 314 0.0 0.0 0.00 0.00 0.00 79 1019.7
20260902023532 71 314 0.0 0.0 0.00 0.00 0.00 79 1019.6
20260902023036 71 314 0.0 0.0 0.00 0.00 0.00 78 1019.6
20260902022541 71 314 0.0 0.0 0.00 0.00 0.00 78 1019.6
20260902022038 71 314 0.0 0.0 0.00 0.00 0.00 78 1019.6
20260902021600 71 314 0.0 0.0 0.00 0.00 0.00 78 1019.6
20260902021032 72 315 0.0 0.0 0.00 0.00 0.00 78 1019.7
20260902020539 72 314 0.0 0.0 0.00 0.00 0.00 77 1019.5
20260902020045 72 314 0.0 0.0 0.00 0.00 0.00 78 1019.5
20260902015602 72 314 0.0 0.0 0.00 0.00 0.00 78 1019.5
20260902015033 72 314 0.0 0.0 0.00 0.00 0.00 78 1019.5
20260902014538 72 315 0.0 0.0 0.00 0.00 0.00 79 1019.5
20260902014042 72 314 0.0 0.0 0.00 0.00 0.00 79 1019.5
20260902013606 72 315 0.0 0.0 0.00 0.00 0.00 78 1019.5
20260902013043 72 314 0.0 0.0 0.00 0.00 0.00 78 1019.5
20260902012546 72 315 0.0 0.0 0.00 0.00 0.00 78 1019.6
20260902012055 72 315 0.0 0.0 0.00 0.00 0.00 78 1019.6
20260902011534 72 315 0.0 0.0 0.00 0.00 0.00 78 1019.5
20260902011043 72 314 0.0 0.0 0.00 0.00 0.00 79 1019.5
20260902010545 72 315 0.0 0.0 0.00 0.00 0.00 78 1019.5
20260902010033 72 314 0.0 0.0 0.00 0.00 0.00 78 1019.5
20260902005538 72 314 0.0 0.0 0.00 0.00 0.00 78 1019.6
20260902005057 72 314 0.0 0.0 0.00 0.00 0.00 77 1019.6
20260902004557 73 314 0.0 0.0 0.00 0.00 0.00 77 1019.7
20260902004043 73 314 0.0 0.0 0.00 0.00 0.00 77 1019.7
20260902003535 73 314 0.0 0.0 0.00 0.00 0.00 77 1019.6
20260902003045 73 314 0.0 0.0 0.00 0.00 0.00 77 1019.7
20260902002544 73 315 0.0 0.0 0.00 0.00 0.00 77 1019.7
20260902002058 73 315 0.0 0.0 0.00 0.00 0.00 78 1019.7
20260902001534 73 315 0.0 0.0 0.00 0.00 0.00 78 1019.6
20260902001043 73 314 0.0 0.0 0.00 0.00 0.00 77 1019.6
20260902000547 73 314 0.0 0.0 0.00 0.00 0.00 77 1019.7
20260902000035 73 314 0.0 0.0 0.00 0.00 0.00 77 1019.7
20260901235537 73 314 0.0 0.0 0.00 0.00 0.00 77 1019.7
20260901235042 73 314 0.0 0.0 0.00 0.00 0.00 76 1019.6
20260901234542 73 314 0.0 0.0 0.00 0.00 0.00 76 1019.7
20260901234037 74 314 0.0 0.0 0.00 0.00 0.00 75 1019.7
20260901233542 74 314 0.0 0.0 0.00 0.00 0.00 75 1019.7
20260901233032 74 315 0.0 0.0 0.00 0.00 0.00 75 1019.8
20260901232535 74 315 0.0 0.0 0.00 0.00 0.00 75 1019.8
20260901232041 74 314 0.0 0.0 0.00 0.00 0.00 75 1019.8
20260901231540 74 314 0.0 0.0 0.00 0.00 0.00 74 1019.7
20260901231120 74 314 0.0 0.0 0.00 0.00 0.00 74 1019.7
20260901230532 74 314 0.0 0.0 0.00 0.00 0.00 74 1019.7
20260901230042 74 314 0.0 0.0 0.00 0.00 0.00 74 1019.7
20260901225602 74 316 0.0 0.0 0.00 0.00 0.00 74 1019.7
20260901225046 74 317 0.0 0.0 0.00 0.00 0.00 74 1019.8
20260901224550 74 317 0.0 0.0 0.00 0.00 0.00 74 1019.8
20260901224035 75 317 0.0 0.0 0.00 0.00 0.00 73 1019.8
20260901223559 75 317 0.0 0.0 0.00 0.00 0.00 75 1019.7
20260901223118 75 317 0.0 0.0 0.00 0.00 0.00 75 1019.7
20260901222533 75 317 0.0 0.0 0.00 0.00 0.00 73 1019.7
20260901222107 75 317 0.0 0.0 0.00 0.00 0.00 73 1019.7
20260901221604 75 317 0.0 0.0 0.00 0.00 0.00 73 1019.7
20260901221034 75 317 0.0 0.0 0.00 0.00 0.00 73 1019.7
20260901220555 75 317 0.0 0.0 0.00 0.00 0.00 73 1019.7
20260901220109 75 317 0.0 0.0 0.00 0.00 0.00 73 1019.7
20260901215543 75 317 0.0 0.0 0.00 0.00 0.00 73 1019.7
20260901215055 75 317 0.0 0.0 0.00 0.00 0.00 74 1019.7
20260901214557 75 317 0.0 0.0 0.00 0.00 0.00 74 1019.6
20260901214046 75 317 0.0 0.0 0.00 0.00 0.00 73 1019.6
20260901213543 75 317 0.0 0.0 0.00 0.00 0.00 74 1019.6
20260901213035 75 317 0.0 0.0 0.00 0.00 0.00 74 1019.6
20260901212541 75 317 0.0 0.0 0.00 0.00 0.00 74 1019.6
20260901212037 75 317 0.0 0.0 0.00 0.00 0.00 73 1019.6
20260901211611 75 317 0.0 0.0 0.00 0.00 0.00 74 1019.6
20260901211100 75 317 0.0 0.0 0.00 0.00 0.00 74 1019.6
20260901210534 75 317 0.0 0.0 0.00 0.00 0.00 75 1019.6
20260901210042 76 317 0.0 0.0 0.00 0.00 0.00 74 1019.5
20260901205539 76 317 0.0 0.0 0.00 0.00 0.00 73 1019.5
20260901205048 75 317 0.0 0.0 0.00 0.00 0.00 73 1019.5
20260901204536 75 317 0.0 0.0 0.00 0.00 0.00 73 1019.5
20260901204108 75 317 0.0 0.0 0.00 0.00 0.00 73 1019.5
20260901203548 75 317 0.0 0.0 0.00 0.00 0.00 73 1019.5
20260901203046 75 316 0.0 0.0 0.00 0.00 0.00 73 1019.5
20260901202548 76 317 0.0 0.0 0.00 0.00 0.00 73 1019.6
20260901202050 76 317 0.0 4.0 0.00 0.00 0.00 73 1019.5
20260901201548 76 317 0.0 5.0 0.00 0.00 0.00 73 1019.5